Weather History for Montpelier, VT

Change the Weather History Date:

Sunday, September 15, 2013

  Actual Average Record
Temperature  
Mean Temperature 52 °F 58 °F  
Max Temperature 67 °F 69 °F 83 °F (1993)
Min Temperature 37 °F 47 °F 30 °F (1963)
Degree Days  
Heating Degree Days 13 8  
Month to date heating degree days 106 85  
Since 1 July heating degree days 199 193  
Cooling Degree Days 0 1  
Month to date cooling degree days 29 15  
Year to date cooling degree days 323 259  
Moisture  
Dew Point 44 °F    
Average Humidity 74    
Maximum Humidity 100    
Minimum Humidity 48    
Precipitation  
Precipitation 0.01 in 0.10 in 2.18 in (1998)
Month to date precipitation 3.47 1.40  
Year to date precipitation 28.76 26.20  
Sea Level Pressure  
Sea Level Pressure 30.13 in    
Wind  
Wind Speed 2 mph (WSW)    
Max Wind Speed 8 mph    
Max Gust Speed 14 mph    
Visibility 6 miles    
Events Fog    
T = Trace of Precipitation, MM = Missing Value Source: NWS Daily Summary

Daily Weather History Graph

Daily Weather History Graph

Search for Another Location

Airport:

Trip Planner

Search our weather history database for the weather conditions in past years. The results will help you decide how hot, cold, wet, or windy it might be!

Date:

Astronomy

Sep. 15, 2013 Rise Set
Actual Time 6:29 AM EDT 7:00 PM EDT
Civil Twilight 6:00 AM EDT 7:29 PM EDT
Nautical Twilight 5:26 AM EDT 8:03 PM EDT
Astronomical Twilight 4:50 AM EDT 8:39 PM EDT
Moon 4:32 PM EDT (9/15) 1:56 AM EDT (9/15)
Length of Visible Light 13h 28m
Length of Day
12h 30m
Waxing Gibbous, 82% of the Moon is Illuminated
Sep 15
Waxing Gibbous
Sep 19
Full
Sep 26
Last Quarter
Oct 4
New
Oct 11
First Quarter

Hourly Weather History & Observations

Time (EDT) Temp. Dew Point Humidity Pressure Visibility Wind Dir Wind Speed Gust Speed Precip Events Conditions
12:05 AM 42.8 °F 42.8 °F 100% 30.11 in 10.0 mi Calm Calm - N/A   Clear
12:25 AM 42.8 °F 42.8 °F 100% 30.11 in 2.5 mi Calm Calm - N/A   Scattered Clouds
12:34 AM 41.0 °F 41.0 °F 100% 30.11 in 2.0 mi Calm Calm - N/A   Mostly Cloudy
12:38 AM 41.0 °F 41.0 °F 100% 30.11 in 1.0 mi Calm Calm - N/A   Mist
12:51 AM 41.0 °F 39.9 °F 96% 30.14 in 0.5 mi Calm Calm - N/A Fog Fog
1:51 AM 41.0 °F 41.0 °F 100% 30.13 in 0.2 mi Calm Calm - N/A Fog Fog
2:51 AM 39.9 °F 39.0 °F 97% 30.14 in 0.2 mi Calm Calm - N/A Fog Fog
3:51 AM 39.9 °F 39.9 °F 100% 30.15 in 0.2 mi Calm Calm - N/A Fog Fog
4:51 AM 37.9 °F 37.0 °F 97% 30.16 in 1.8 mi Calm Calm - N/A   Overcast
4:58 AM 37.4 °F 37.4 °F 100% 30.14 in 1.0 mi Calm Calm - N/A   Overcast
5:14 AM 39.2 °F 39.2 °F 100% 30.14 in 0.2 mi Calm Calm - N/A Fog Fog
5:51 AM 39.0 °F 37.9 °F 96% 30.17 in 0.2 mi Calm Calm - N/A Fog Fog
6:51 AM 37.9 °F 37.9 °F 100% 30.17 in 0.2 mi Calm Calm - N/A Fog Fog
7:51 AM 41.0 °F 41.0 °F 100% 30.19 in 0.2 mi Calm Calm - N/A Fog Fog
8:35 AM 42.8 °F 42.8 °F 100% 30.17 in 1.8 mi Calm Calm - N/A   Overcast
8:37 AM 42.8 °F 42.8 °F 100% 30.17 in 3.0 mi Calm Calm - N/A   Overcast
8:51 AM 44.1 °F 44.1 °F 100% 30.19 in 10.0 mi Calm Calm - N/A   Overcast
9:39 AM 48.2 °F 46.4 °F 93% 30.16 in 10.0 mi ENE 3.5 mph - N/A   Scattered Clouds
9:51 AM 48.9 °F 48.0 °F 97% 30.19 in 10.0 mi Calm Calm - N/A   Partly Cloudy
10:51 AM 57.0 °F 50.0 °F 77% 30.18 in 10.0 mi NE 4.6 mph - N/A   Clear
11:51 AM 61.0 °F 45.0 °F 56% 30.16 in 10.0 mi Variable 5.8 mph - 0.01 in   Partly Cloudy
12:51 PM 64.0 °F 46.0 °F 52% 30.15 in 10.0 mi NNW 4.6 mph - N/A   Clear
1:51 PM 64.0 °F 46.0 °F 52% 30.13 in 10.0 mi NW 3.5 mph - N/A   Clear
2:51 PM 64.0 °F 45.0 °F 50% 30.11 in 10.0 mi Variable 3.5 mph - N/A   Clear
3:51 PM 64.0 °F 45.0 °F 50% 30.10 in 10.0 mi WNW 3.5 mph - N/A   Clear
4:51 PM 63.0 °F 48.0 °F 58% 30.11 in 10.0 mi West 4.6 mph - N/A   Clear
5:51 PM 61.0 °F 48.9 °F 64% 30.11 in 10.0 mi SW 3.5 mph - N/A   Clear
6:51 PM 57.9 °F 48.9 °F 72% 30.09 in 10.0 mi SSW 6.9 mph - N/A   Clear
7:51 PM 57.9 °F 48.9 °F 72% 30.10 in 10.0 mi SSW 4.6 mph - N/A   Clear
8:51 PM 57.9 °F 48.0 °F 70% 30.11 in 10.0 mi SSW 3.5 mph - N/A   Scattered Clouds
9:51 PM 55.0 °F 50.0 °F 83% 30.10 in 10.0 mi Calm Calm - N/A   Clear
10:51 PM 57.0 °F 48.9 °F 74% 30.06 in 10.0 mi Calm Calm - N/A   Clear
11:51 PM 55.0 °F 48.9 °F 80% 30.08 in 10.0 mi South 3.5 mph - N/A   Clear